Location: Stara Lesna
(49.1528°N, 20.2911°E)
Time: 17:49:56
(UTC+02:00)

Cosmos 1763 Rocket - Pass Details

Date: 13 July 2020
Orbit: 732 x 781 km, 74.0° (Epoch: 11 August)

Event Time Altitude Azimuth Distance (km) Brightness Sun altitude
Rises 03:21:21 0° 338° (NNW) 3,236 7.2 -11.0°
Reaches altitude 10° 03:23:45 10° 341° (NNW) 2,313 6.5 -10.7°
Maximum altitude 03:28:58 65° 64° (ENE) 853 4.0 -10.2°
Drops below altitude 10° 03:34:13 10° 146° (SE) 2,323 5.8 -9.7°
Sets 03:36:37 0° 149° (SSE) 3,250 6.6 -9.4°
